Wind_Speed
36 37 40 42 44 45 46 47 48 49 50 52 53 52 52 51 51 51 49 47 44 41 40 40 40 39 37 36 36 36 35 33 33 33 33 31 29 27 26 26 25 23 23 22 21 19 17 17 17 17 16 15 14 14 14 14 14 13 13 13 13 12 12
36 38 39 42 44 46 46 47 48 49 49 51 52 52 53 52 53 52 51 49 46 43 41 40 40 40 39 37 36 36 36 35 34 34 33 33 31 29 28 27 26 24 24 23 21 19 17 17 17 17 16 15 15 14 14 15 15 14 14 15 14 14 13
38 41 42 43 45 47 46 46 47 48 49 50 52 53 54 54 54 54 52 50 48 45 43 42 41 40 40 39 37 37 37 37 36 36 35 34 33 31 29 28 27 26 25 24 23 20 17 17 16 16 16 16 15 15 15 15 16 15 15 16 16 15 15
39 42 45 46 46 45 45 45 46 48 49 50 52 54 55 55 55 54 53 51 49 47 46 44 42 41 40 40 39 38 38 38 38 38 37 36 35 33 31 29 28 27 26 25 23 21 19 18 17 15 15 16 16 16 16 15 16 16 16 16 17 16 15
38 40 41 43 44 44 45 45 47 48 49 50 51 53 54 54 54 54 53 52 50 48 47 44 43 41 41 41 40 39 39 39 40 39 39 38 36 35 33 31 29 28 27 26 24 22 20 19 18 17 16 15 15 16 17 17 16 17 17 17 17 16 15
34 37 39 41 43 45 46 47 48 49 49 50 50 51 52 52 53 54 53 53 52 50 48 46 44 43 41 41 41 40 39 40 40 40 40 40 38 37 36 33 31 29 28 27 26 24 22 21 20 19 18 17 16 16 17 18 18 18 19 19 18 17 16
34 37 41 43 44 45 47 47 47 48 49 49 48 49 50 51 52 53 53 53 53 51 50 49 47 45 43 42 41 41 40 40 40 41 42 41 40 39 38 36 34 32 30 29 28 27 25 24 22 21 20 20 19 18 17 18 19 19 20 20 20 18 18
26 33 35 38 41 43 46 47 47 47 47 47 47 47 49 50 51 52 52 53 53 52 52 51 49 47 45 43 42 41 41 40 40 41 42 43 43 42 40 39 37 35 34 32 31 30 29 27 25 24 23 22 21 20 19 19 19 20 21 22 21 20 19
2 14 21 25 28 32 36 40 43 45 45 46 46 47 48 49 50 51 52 52 52 52 52 51 50 48 46 45 43 42 41 41 41 41 41 43 44 45 43 42 41 39 38 36 34 33 32 30 29 27 26 25 24 23 22 21 20 20 21 22 22 22 21
29 16 5 9 15 19 22 26 31 35 40 43 44 45 46 48 49 51 51 51 52 52 52 51 50 49 47 46 44 43 42 41 41 41 41 42 44 46 46 45 44 43 42 40 38 36 35 33 32 31 30 29 27 26 25 24 22 22 22 23 23 23 23
38 34 26 17 9 8 11 16 21 26 31 36 39 42 44 45 47 49 50 50 51 51 51 51 50 49 49 48 46 44 43 42 41 41 42 43 44 45 46 46 46 46 45 44 42 40 38 36 35 34 33 32 30 29 28 27 25 23 23 24 24 24 24
36 37 36 33 27 18 12 9 13 18 23 29 34 37 39 42 44 46 47 49 50 50 50 50 50 49 49 48 48 46 45 43 42 41 41 42 43 44 45 46 47 47 47 47 45 43 41 39 37 36 35 33 32 31 30 29 28 26 25 24 25 25 25
34 36 36 36 35 30 23 17 11 8 13 20 26 31 34 37 40 42 43 45 46 47 48 48 48 49 49 49 48 48 46 45 43 41 40 40 41 42 43 45 46 47 47 47 47 46 45 42 40 37 36 34 33 33 32 32 31 30 27 26 26 26 26
38 38 38 38 38 36 31 26 21 14 8 9 15 22 27 31 35 38 40 41 43 43 44 45 46 47 48 48 49 49 48 46 44 42 40 39 39 39 40 42 44 45 46 47 47 47 46 44 42 39 37 36 35 34 34 34 34 33 31 29 28 27 27
39 39 39 38 37 36 35 31 26 22 16 9 8 11 18 23 28 32 35 38 39 40 40 41 42 44 45 46 48 48 48 46 45 44 42 40 39 39 39 39 40 42 44 45 47 47 46 45 44 42 41 39 38 37 37 36 36 35 34 32 30 29 28
34 37 38 38 37 36 35 32 28 26 22 16 11 6 7 12 20 26 30 32 34 35 37 38 38 38 41 44 47 48 48 47 46 45 44 42 41 40 39 38 38 40 41 43 45 45 46 45 45 45 44 42 41 40 39 39 38 37 35 33 32 30 30
28 33 36 36 36 35 35 33 29 27 25 22 17 12 7 3 8 17 24 29 31 33 35 38 39 38 38 41 44 46 47 47 47 46 45 44 43 42 41 40 39 39 39 40 42 43 44 45 45 46 45 44 43 42 41 40 39 38 37 35 33 32 31
26 29 31 33 35 35 34 33 31 28 26 25 21 16 12 8 2 8 17 24 30 35 35 34 37 39 39 39 40 42 44 46 47 46 45 44 43 43 43 42 42 41 40 40 40 41 42 43 44 45 45 44 44 43 42 41 39 39 38 36 34 33 32
26 28 28 30 32 33 32 32 31 29 26 24 22 19 16 13 7 1 9 16 23 29 32 31 31 35 38 38 38 39 43 46 46 46 45 45 44 43 43 43 43 43 42 40 39 39 41 42 43 44 44 44 44 43 42 40 39 38 38 37 35 34 33
24 25 25 27 29 31 30 30 30 29 26 24 22 20 19 16 10 6 1 10 15 19 26 32 32 32 36 38 38 39 41 44 44 44 46 46 46 44 43 43 43 43 42 40 39 39 40 41 42 43 43 44 44 43 42 40 38 38 37 37 35 34 34
24 23 23 25 27 27 28 29 30 30 28 25 23 21 20 17 11 8 6 2 10 15 21 27 30 31 35 39 40 40 42 42 41 41 45 47 48 47 46 44 43 42 42 41 38 37 37 38 40 41 43 43 43 43 43 41 38 37 37 36 36 35 35
24 24 23 23 25 25 26 27 28 30 30 28 26 23 21 19 14 9 8 4 3 10 16 21 25 29 33 37 39 41 43 43 41 39 43 46 48 48 48 47 45 42 41 41 39 36 34 35 37 39 41 42 43 43 44 41 39 37 37 36 36 36 36
23 24 23 22 22 22 23 24 24 26 29 29 28 26 23 22 18 14 13 9 3 4 9 13 18 22 27 33 37 39 41 42 42 41 41 44 47 48 48 48 47 44 42 42 42 40 36 33 33 35 38 40 42 43 43 41 39 37 36 36 36 37 37
21 23 23 23 23 21 20 22 23 23 25 28 29 27 26 24 21 19 18 14 8 5 5 7 11 14 17 22 28 33 36 39 41 42 42 44 46 48 48 47 47 46 44 42 42 41 39 35 33 33 34 37 40 42 42 41 39 37 36 36 36 37 38
19 21 22 23 24 23 20 21 22 22 22 24 27 28 28 27 24 21 18 16 12 9 7 7 7 9 10 12 15 21 27 32 37 40 42 44 47 48 49 48 46 45 44 44 43 41 39 38 36 35 34 35 38 40 42 42 40 38 37 36 36 37 38
18 19 21 22 23 24 23 21 21 22 22 23 26 28 28 28 27 24 20 18 16 12 10 10 8 9 10 10 11 14 19 23 28 34 39 42 45 47 48 47 45 44 43 43 43 42 40 39 38 38 37 36 37 39 41 42 41 39 38 36 36 37 38
16 17 19 21 22 23 24 23 21 21 22 22 23 25 27 28 28 27 24 21 19 16 13 11 11 12 12 13 13 14 16 18 21 24 29 34 38 42 44 45 43 42 42 42 43 42 41 40 39 39 38 37 37 38 40 41 41 40 38 37 36 37 38
16 16 18 20 20 20 23 24 23 20 20 20 21 23 25 27 28 28 27 24 21 19 16 14 14 14 14 16 16 16 17 17 17 17 19 23 28 34 39 41 41 40 40 41 42 43 42 40 39 39 39 38 38 39 39 40 41 41 39 38 37 37 38
19 18 18 19 19 19 21 23 24 23 21 20 21 22 23 26 28 28 28 26 23 21 19 17 16 16 16 17 18 19 19 19 18 16 15 16 20 25 30 34 37 38 39 39 41 42 42 41 40 39 39 39 39 40 40 40 41 41 41 40 39 38 38
22 21 19 18 18 19 20 23 24 24 23 20 20 21 23 25 27 29 29 28 26 23 21 19 18 18 18 17 18 19 20 20 19 16 14 14 16 19 23 27 31 35 37 38 40 42 43 42 40 40 40 40 40 41 41 41 41 41 41 41 40 39 39
25 24 21 18 17 18 19 22 23 24 25 22 19 19 21 23 25 28 29 29 28 26 24 22 20 20 20 19 18 18 19 21 20 18 16 15 15 17 21 24 28 32 35 37 40 42 43 42 41 40 40 40 41 42 42 42 42 42 42 42 41 41 40
25 24 22 20 18 17 19 21 21 22 24 23 20 19 20 22 24 26 28 29 29 27 26 25 24 23 22 22 20 18 18 20 21 21 19 18 17 18 19 23 26 30 33 36 39 41 42 42 41 40 40 41 41 42 42 43 43 43 43 43 42 42 41
27 25 24 23 21 19 19 20 21 21 22 23 21 20 21 22 23 25 27 28 28 27 26 26 26 25 25 25 23 21 20 21 20 20 21 20 19 20 20 23 26 30 33 36 38 40 42 42 42 42 42 42 42 42 43 44 44 44 44 44 44 43 41
30 27 26 25 23 21 20 20 21 21 21 22 21 21 22 22 23 24 25 26 27 27 27 27 27 27 27 27 27 26 26 23 19 19 21 21 20 21 22 23 26 30 33 35 36 38 40 42 42 43 42 42 42 42 43 45 46 46 45 44 43 42 41
31 29 28 28 26 23 21 21 21 21 22 21 20 20 22 23 22 23 24 24 25 27 28 28 28 28 29 29 28 28 27 25 21 19 20 21 21 22 23 24 26 29 32 34 34 34 35 37 39 40 41 41 41 41 43 45 44 42 41 42 41 39 39
31 30 28 29 28 26 24 23 22 21 22 21 19 19 21 22 22 22 22 22 23 25 27 28 28 29 30 30 29 27 26 25 22 20 20 21 22 23 23 25 26 29 32 34 34 32 32 34 35 36 38 40 41 40 41 41 38 35 36 39 39 38 38
30 29 28 27 28 28 26 24 23 22 22 22 20 19 19 20 20 21 21 20 21 23 26 27 28 29 30 31 30 28 26 24 22 20 19 20 21 23 24 25 26 28 31 35 36 34 33 33 35 36 38 41 42 41 42 42 39 37 38 39 39 38 38
29 27 26 26 26 27 27 25 23 22 22 22 22 21 19 19 19 20 20 20 20 22 24 25 27 28 30 30 30 29 27 24 21 19 19 19 20 22 23 23 25 27 31 35 37 38 36 35 36 38 40 42 43 43 44 43 42 40 39 39 39 39 38
Wind_Direction
204 204 204 205 205 206 206 205 204 205 205 205 205 206 207 208 210 212 213 213 214 216 217 217 217 217 216 217 218 220 220 218 216 216 217 216 218 218 217 217 217 215 215 216 215 213 211 210 211 214 214 214 214 212 213 218 222 222 217 214 211 210 214
204 205 205 205 206 207 207 206 206 206 206 206 206 206 207 208 210 212 213 214 215 216 218 218 219 219 218 218 219 220 221 219 217 217 216 215 216 218 218 220 222 220 219 220 220 218 215 214 215 216 217 217 217 214 216 220 224 227 225 224 221 217 215
203 205 205 206 207 207 207 206 206 206 207 207 207 207 208 209 211 213 214 215 216 217 218 219 221 221 221 220 220 221 221 220 219 217 216 216 216 218 219 221 223 224 224 222 222 222 219 217 218 218 219 220 220 219 220 222 226 230 231 231 230 225 221
204 206 206 207 208 207 207 207 206 207 207 208 208 209 210 210 212 213 215 216 217 217 218 220 221 222 223 222 222 222 222 221 220 219 218 218 218 221 222 222 223 225 226 225 224 224 224 225 225 224 223 224 224 225 226 227 229 233 234 235 236 234 229
207 207 206 207 208 207 207 207 207 207 207 208 209 210 211 210 211 213 215 217 219 220 221 221 222 223 224 225 225 224 223 222 222 221 220 220 221 223 224 226 225 224 225 226 227 228 229 231 233 233 234 232 231 229 230 232 233 235 238 239 240 240 235
207 207 207 207 207 206 207 207 207 208 207 208 209 210 211 210 210 212 215 217 219 220 222 222 223 224 225 226 227 227 226 224 224 223 223 223 223 225 226 228 229 227 227 228 230 233 235 237 240 242 243 243 244 240 237 236 236 236 240 241 242 243 241
207 206 207 207 207 206 207 207 207 208 208 209 209 210 210 210 211 213 214 217 218 219 220 221 223 224 225 227 228 229 228 227 226 226 225 225 226 227 229 230 231 231 232 232 233 236 239 242 245 247 249 249 249 249 245 242 240 238 239 241 242 243 243
215 213 210 208 208 207 207 207 207 208 208 208 209 209 210 211 212 213 214 216 218 219 220 221 223 224 226 227 229 230 230 230 229 228 228 228 228 228 230 232 234 235 235 235 237 239 242 246 249 251 252 252 251 250 248 246 245 242 241 241 242 243 244
16 220 216 214 213 211 210 209 208 208 207 207 208 209 211 212 212 214 216 216 217 218 220 222 223 225 226 228 229 231 231 232 231 231 231 231 230 229 230 232 234 237 238 239 240 242 244 247 250 253 254 254 252 251 250 249 248 245 243 242 242 243 244
37 51 114 198 212 216 219 216 213 211 209 208 208 209 211 212 213 215 216 217 217 219 220 221 223 224 226 227 230 231 232 233 233 233 233 233 232 232 231 231 233 236 239 241 243 244 246 248 251 253 255 255 254 252 252 252 250 248 245 244 242 242 244
33 43 55 67 99 166 201 211 213 215 214 212 211 211 212 213 214 215 216 218 219 220 221 221 222 224 225 227 229 230 232 233 234 235 234 233 233 233 233 233 233 235 237 240 243 244 246 248 250 252 253 254 254 253 253 254 254 252 248 246 244 243 243
30 35 42 49 58 72 96 143 187 206 212 215 215 215 215 215 216 217 218 219 220 221 221 221 222 223 224 226 228 230 232 233 234 235 235 235 234 233 234 234 235 235 237 239 241 243 245 247 248 250 251 253 253 253 254 255 257 257 254 251 247 245 244
29 31 36 40 46 51 60 73 94 153 193 209 215 217 219 219 219 220 220 221 221 222 222 222 222 223 224 226 228 230 232 234 235 236 237 237 237 235 235 236 237 237 238 239 241 242 244 245 247 248 249 251 252 253 254 256 258 258 258 255 251 249 247
29 28 32 34 38 41 43 48 55 70 110 175 201 212 218 221 222 222 222 223 223 223 223 224 223 223 224 226 228 231 233 235 236 238 239 240 240 240 239 238 239 240 241 241 242 242 244 245 246 247 248 249 250 252 254 256 258 259 260 258 255 252 250
30 25 27 29 31 34 36 38 41 46 57 86 141 187 207 215 220 222 223 225 224 223 224 225 225 225 225 226 228 232 235 236 238 239 240 241 241 242 242 242 242 242 243 244 244 245 245 246 247 248 248 249 250 252 254 255 257 258 260 260 257 255 252
30 25 24 25 26 29 33 35 36 37 42 53 71 103 171 202 214 217 219 222 223 222 223 223 223 225 226 228 231 234 237 238 239 240 241 241 242 243 243 244 244 244 245 245 246 247 248 248 249 249 250 251 251 253 254 255 257 258 259 260 259 258 256
26 25 22 22 24 25 27 31 33 33 34 35 40 52 68 122 201 212 216 218 220 221 221 221 222 224 228 230 233 236 237 238 239 240 241 242 244 245 245 245 245 246 247 247 247 248 249 249 250 250 251 252 253 254 255 256 257 258 259 260 259 258 257
18 21 19 18 19 20 21 23 24 25 27 25 26 33 40 46 92 204 211 215 220 221 220 220 223 227 230 231 233 235 237 238 240 240 242 244 246 247 248 248 248 248 248 248 249 249 250 250 251 251 252 252 253 254 255 256 258 259 260 260 259 259 258
14 13 14 13 15 15 15 14 14 16 19 19 19 20 20 21 29 129 204 211 220 224 223 224 226 230 234 235 236 237 237 238 241 243 244 247 248 249 249 249 249 249 249 249 250 250 251 252 252 252 252 252 253 254 255 256 258 259 260 260 259 259 258
9 4 3 5 8 10 9 6 6 7 9 12 14 13 10 8 17 33 142 205 211 219 226 229 231 234 238 240 241 240 235 234 239 244 248 250 249 248 248 248 248 249 249 249 250 250 251 252 252 253 252 252 252 253 255 256 257 259 260 260 260 259 259
4 358 355 354 356 360 3 2 360 358 359 4 6 7 6 360 358 17 28 194 199 203 214 224 229 233 237 240 242 242 237 233 236 242 247 248 248 247 247 248 248 248 248 248 248 250 252 253 253 253 252 252 253 253 254 255 256 258 259 259 260 260 259
359 354 351 348 346 347 352 357 356 354 353 354 356 359 2 359 349 344 356 6 207 205 209 216 224 229 234 237 240 242 240 236 237 241 243 244 245 245 246 247 247 247 249 248 247 249 252 253 254 253 253 252 252 252 254 255 256 257 258 259 260 260 260
354 350 346 343 339 337 340 345 348 350 348 346 348 350 353 356 351 340 341 352 343 232 218 218 224 230 236 239 241 242 242 239 239 242 242 241 243 245 246 247 247 247 248 248 246 247 249 251 254 254 254 252 251 251 253 254 255 256 257 258 259 259 259
348 347 344 341 338 333 331 332 336 343 343 339 339 342 344 347 349 348 348 347 335 299 265 242 233 234 239 242 243 244 244 244 244 245 243 242 244 247 248 248 248 248 249 248 248 248 249 251 253 255 255 253 252 251 252 253 254 255 256 257 258 259 259
341 341 339 339 339 336 331 327 329 333 335 333 331 333 335 338 342 347 348 341 331 313 291 276 255 240 241 244 244 244 245 248 249 249 247 246 246 248 250 250 250 250 250 249 250 250 250 250 251 254 255 255 253 252 252 253 254 254 255 255 256 257 258
337 336 333 333 335 335 332 327 324 324 328 329 327 326 328 330 333 339 341 338 336 326 301 286 273 255 249 248 242 239 241 246 250 252 252 251 250 250 251 252 252 251 250 250 249 249 249 250 251 252 254 255 254 253 252 252 253 253 253 254 254 256 256
330 328 327 327 329 332 331 329 325 322 323 326 324 323 324 324 326 330 332 334 335 330 316 300 284 269 258 252 246 243 243 243 249 254 255 255 255 254 252 252 252 251 251 250 249 248 248 249 250 251 253 254 254 254 253 253 253 252 253 253 253 254 254
323 321 321 322 325 328 327 325 325 324 320 322 325 323 322 322 322 323 325 328 329 326 320 310 296 281 267 256 251 250 250 249 249 254 256 256 256 255 253 252 251 252 252 250 248 247 247 249 249 250 252 253 254 254 254 254 254 253 253 253 253 253 254
314 315 317 320 322 326 323 318 319 322 321 320 322 322 322 321 319 319 320 321 322 322 319 311 301 292 280 266 257 255 256 256 255 255 257 257 255 254 254 253 251 251 251 248 246 245 246 247 248 248 249 251 252 253 254 254 254 254 253 253 254 254 254
306 306 309 313 316 322 322 314 311 315 319 322 320 318 318 319 317 315 316 316 317 317 317 312 304 296 288 277 268 261 259 263 266 265 263 263 258 252 252 254 252 250 249 247 245 243 244 245 246 247 248 249 251 253 253 254 254 254 255 254 255 255 255
304 301 300 304 309 314 317 313 308 307 312 319 323 317 314 316 315 312 312 313 313 313 314 312 307 301 294 286 278 270 265 265 269 270 271 272 266 253 246 247 249 247 246 244 242 241 242 244 245 246 248 249 251 252 253 253 253 254 255 255 255 255 255
302 298 293 294 300 306 309 310 307 302 303 311 320 319 313 312 313 311 310 310 310 311 312 310 307 304 300 293 286 281 276 271 267 268 271 273 273 264 250 244 245 246 244 242 241 241 242 243 244 246 248 249 251 252 253 253 253 254 255 255 254 255 255
298 295 290 288 292 299 303 304 304 303 300 303 312 319 316 312 310 309 309 309 308 309 309 308 307 306 304 298 291 284 279 275 272 271 272 271 272 271 260 246 243 243 243 242 241 241 242 242 243 244 246 249 251 252 251 251 252 253 254 254 253 254 254
294 292 286 284 286 291 296 298 300 302 300 299 305 313 315 313 311 308 306 306 307 307 307 305 305 306 305 303 297 288 281 281 281 281 279 274 271 272 266 254 245 242 241 242 243 243 243 243 244 246 248 250 251 251 250 250 252 253 254 254 255 255 255
293 290 282 279 281 285 288 289 292 297 299 297 299 306 310 311 310 306 305 305 305 305 304 303 304 305 305 305 303 296 288 285 284 282 283 280 274 270 268 263 255 249 246 245 245 246 248 249 250 252 252 252 252 252 250 250 253 257 259 258 259 260 259
293 289 279 275 277 280 281 281 284 291 295 294 293 297 303 307 307 304 304 305 304 303 302 301 302 305 306 306 306 303 296 290 286 282 282 281 277 271 267 264 261 256 251 249 247 248 251 253 254 256 256 255 256 255 254 255 260 264 264 262 262 263 263
292 287 279 275 276 278 278 278 279 285 291 292 290 290 295 301 303 303 305 305 303 302 301 300 301 304 306 306 306 305 302 298 293 287 280 277 276 272 266 262 260 257 253 249 246 246 249 253 255 255 255 255 257 258 259 260 262 261 261 261 262 262 262
289 285 280 277 277 278 279 278 276 281 288 290 288 286 291 297 300 303 307 307 303 300 299 300 301 303 304 304 304 304 303 301 297 290 282 276 274 271 267 262 259 255 251 247 243 243 245 250 253 253 252 253 255 256 257 259 259 257 258 259 260 260 261
Height
1481 1483 1485 1488 1490 1493 1495 1498 1501 1503 1506 1509 1512 1515 1518 1520 1523 1525 1528 1530 1533 1536 1538 1541 1544 1546 1548 1550 1553 1556 1559 1561 1564 1565 1567 1569 1571 1572 1574 1576 1577 1579 1580 1581 1582 1583 1585 1586 1587 1588 1589 1590 1591 1592 1593 1593 1594 1595 1595 1596 1597 1598 1599
1477 1480 1482 1484 1487 1489 1492 1495 1499 1501 1504 1507 1510 1513 1515 1517 1520 1522 1525 1528 1530 1533 1536 1539 1541 1543 1546 1548 1551 1554 1556 1559 1562 1564 1566 1567 1569 1571 1572 1574 1576 1578 1579 1580 1582 1583 1585 1586 1586 1587 1588 1589 1590 1591 1592 1593 1593 1594 1595 1596 1597 1597 1598
1472 1475 1477 1479 1482 1485 1489 1493 1496 1499 1502 1504 1507 1510 1512 1514 1516 1519 1522 1525 1528 1532 1534 1536 1539 1541 1544 1546 1549 1552 1554 1557 1560 1562 1564 1565 1567 1569 1571 1573 1574 1576 1578 1580 1581 1583 1584 1585 1586 1587 1588 1589 1590 1591 1591 1592 1593 1594 1595 1595 1596 1597 1598
1467 1469 1472 1475 1478 1483 1487 1490 1493 1496 1498 1501 1503 1506 1509 1511 1515 1517 1521 1523 1526 1529 1531 1534 1537 1539 1542 1544 1547 1549 1552 1554 1557 1559 1562 1564 1566 1568 1569 1571 1573 1574 1576 1578 1580 1581 1583 1584 1585 1586 1587 1588 1590 1590 1591 1592 1592 1593 1594 1595 1596 1596 1597
1466 1467 1470 1474 1476 1480 1484 1486 1490 1492 1495 1498 1501 1504 1507 1510 1514 1516 1519 1522 1524 1526 1529 1532 1536 1538 1541 1543 1545 1547 1549 1552 1555 1557 1560 1562 1564 1566 1567 1569 1571 1573 1574 1576 1578 1580 1581 1583 1584 1585 1586 1587 1589 1590 1590 1591 1592 1592 1593 1594 1595 1595 1596
1462 1466 1468 1471 1473 1476 1479 1482 1485 1488 1492 1495 1498 1502 1505 1509 1512 1514 1517 1520 1522 1525 1528 1530 1533 1535 1538 1540 1542 1545 1547 1550 1552 1555 1558 1560 1562 1564 1565 1567 1569 1571 1573 1574 1576 1578 1580 1581 1582 1584 1585 1586 1588 1589 1589 1590 1591 1591 1592 1593 1594 1594 1596
1459 1461 1462 1465 1469 1471 1475 1479 1482 1486 1489 1493 1497 1500 1504 1507 1509 1511 1514 1517 1519 1522 1525 1527 1530 1532 1535 1537 1540 1543 1545 1547 1550 1553 1555 1558 1560 1562 1563 1565 1567 1569 1571 1573 1574 1576 1578 1579 1581 1582 1584 1585 1586 1587 1588 1589 1590 1591 1591 1592 1592 1593 1594
1460 1461 1462 1465 1467 1469 1473 1476 1479 1483 1487 1491 1495 1497 1501 1504 1507 1509 1512 1514 1517 1520 1522 1524 1527 1530 1533 1535 1538 1540 1542 1545 1548 1550 1553 1555 1557 1559 1561 1563 1565 1567 1569 1570 1572 1574 1576 1577 1579 1580 1582 1583 1584 1586 1587 1588 1589 1590 1590 1591 1591 1592 1593
1463 1465 1467 1470 1472 1474 1476 1477 1479 1482 1485 1488 1491 1494 1498 1501 1504 1506 1508 1511 1514 1516 1519 1522 1525 1528 1530 1533 1535 1537 1540 1542 1545 1547 1550 1552 1554 1556 1558 1560 1562 1564 1566 1568 1570 1572 1573 1575 1577 1578 1580 1581 1582 1584 1585 1586 1587 1588 1589 1590 1590 1591 1592
1468 1468 1469 1472 1475 1478 1480 1482 1484 1486 1487 1488 1490 1492 1495 1498 1501 1504 1506 1509 1511 1513 1516 1519 1522 1525 1528 1530 1532 1535 1537 1539 1541 1544 1546 1548 1550 1552 1554 1557 1559 1561 1563 1565 1567 1568 1570 1572 1574 1576 1577 1579 1580 1581 1583 1584 1585 1586 1587 1588 1589 1590 1591
1475 1472 1471 1473 1475 1477 1481 1484 1486 1489 1490 1490 1491 1493 1495 1497 1499 1502 1504 1507 1509 1511 1514 1517 1520 1522 1524 1527 1529 1532 1534 1536 1538 1540 1541 1543 1546 1548 1551 1553 1555 1558 1559 1561 1563 1565 1567 1569 1571 1573 1574 1576 1577 1579 1580 1582 1583 1585 1586 1587 1588 1589 1590
1482 1479 1477 1477 1477 1478 1480 1482 1484 1487 1489 1491 1493 1494 1496 1497 1499 1501 1503 1505 1507 1510 1512 1515 1517 1520 1522 1524 1526 1528 1530 1532 1534 1535 1537 1539 1541 1544 1547 1549 1551 1553 1555 1558 1560 1562 1564 1566 1568 1570 1571 1573 1575 1576 1578 1579 1581 1582 1584 1585 1586 1587 1588
1488 1485 1483 1482 1480 1480 1481 1481 1483 1485 1487 1489 1491 1494 1496 1497 1499 1501 1503 1505 1507 1509 1511 1513 1515 1517 1519 1521 1523 1525 1527 1528 1530 1532 1534 1536 1538 1541 1543 1545 1547 1549 1551 1554 1556 1558 1560 1562 1564 1566 1568 1570 1572 1573 1575 1577 1578 1580 1581 1583 1584 1585 1586
1491 1489 1487 1485 1483 1483 1483 1483 1484 1484 1485 1487 1489 1492 1494 1496 1498 1500 1502 1503 1505 1508 1510 1512 1514 1516 1518 1520 1521 1523 1524 1526 1529 1530 1533 1535 1537 1539 1541 1542 1544 1546 1548 1550 1552 1554 1556 1558 1561 1563 1565 1567 1568 1570 1572 1574 1575 1576 1578 1580 1582 1583 1584
1492 1492 1490 1488 1488 1487 1487 1487 1487 1486 1486 1486 1487 1490 1492 1494 1496 1498 1500 1501 1503 1505 1508 1511 1514 1516 1518 1520 1521 1522 1524 1526 1528 1529 1531 1533 1535 1537 1538 1540 1541 1543 1545 1547 1548 1550 1552 1555 1557 1559 1561 1563 1565 1567 1569 1570 1572 1573 1575 1577 1579 1580 1581
1496 1496 1495 1493 1492 1491 1490 1490 1489 1489 1488 1487 1487 1489 1490 1492 1494 1495 1497 1499 1501 1504 1506 1508 1512 1516 1519 1520 1521 1522 1523 1525 1526 1527 1529 1531 1532 1534 1535 1537 1539 1541 1542 1544 1545 1547 1549 1551 1553 1555 1557 1559 1561 1563 1565 1566 1568 1570 1572 1574 1576 1577 1579
1500 1499 1498 1496 1494 1493 1492 1491 1491 1490 1490 1489 1489 1489 1490 1491 1492 1493 1494 1497 1499 1501 1503 1504 1507 1511 1516 1519 1520 1522 1523 1523 1525 1526 1528 1529 1531 1532 1534 1535 1537 1538 1539 1541 1543 1544 1546 1548 1550 1551 1553 1555 1557 1559 1560 1562 1564 1566 1569 1571 1572 1574 1575
1503 1502 1501 1499 1496 1495 1494 1493 1493 1492 1491 1492 1492 1491 1490 1490 1491 1491 1492 1494 1496 1497 1499 1502 1504 1506 1508 1511 1516 1521 1523 1523 1524 1525 1526 1528 1529 1531 1533 1534 1535 1536 1537 1538 1539 1541 1543 1545 1546 1547 1550 1551 1553 1555 1556 1558 1561 1563 1565 1567 1569 1571 1572
1504 1503 1503 1502 1498 1496 1495 1495 1495 1495 1494 1493 1493 1493 1492 1491 1491 1490 1490 1491 1492 1494 1497 1501 1505 1506 1506 1506 1508 1512 1515 1518 1520 1522 1524 1525 1526 1528 1529 1531 1532 1533 1534 1535 1537 1539 1540 1541 1542 1544 1546 1548 1549 1551 1552 1554 1557 1559 1561 1563 1565 1567 1569
1505 1504 1504 1503 1500 1498 1497 1496 1497 1497 1497 1495 1495 1494 1493 1492 1491 1490 1489 1489 1490 1492 1496 1499 1501 1503 1504 1504 1503 1503 1504 1508 1513 1518 1521 1522 1523 1524 1525 1526 1528 1529 1531 1532 1534 1535 1536 1537 1539 1540 1542 1544 1546 1547 1549 1551 1553 1555 1557 1559 1561 1563 1565
1505 1505 1504 1503 1501 1500 1498 1497 1496 1496 1496 1496 1496 1494 1492 1491 1490 1490 1489 1489 1488 1490 1493 1496 1497 1498 1499 1500 1501 1500 1499 1500 1503 1508 1513 1516 1518 1520 1521 1521 1523 1525 1527 1529 1530 1531 1532 1534 1535 1536 1538 1540 1542 1544 1545 1546 1549 1551 1553 1555 1558 1560 1561
1507 1506 1505 1503 1502 1500 1499 1498 1497 1496 1495 1495 1495 1493 1491 1490 1490 1489 1489 1488 1488 1488 1489 1492 1494 1494 1494 1496 1498 1498 1498 1498 1498 1500 1504 1509 1513 1516 1517 1518 1519 1521 1523 1525 1526 1527 1528 1529 1531 1532 1534 1536 1538 1540 1541 1542 1545 1547 1549 1551 1554 1555 1557
1508 1507 1505 1504 1503 1501 1499 1499 1499 1497 1495 1493 1493 1492 1490 1489 1489 1489 1489 1487 1487 1487 1488 1488 1489 1490 1492 1493 1495 1496 1497 1499 1499 1499 1501 1505 1508 1511 1513 1515 1517 1518 1520 1521 1522 1523 1524 1525 1526 1528 1530 1531 1533 1535 1536 1538 1540 1543 1545 1547 1549 1551 1552
1509 1508 1505 1504 1502 1500 1499 1499 1498 1497 1496 1494 1492 1491 1490 1489 1488 1489 1488 1486 1486 1487 1487 1487 1487 1488 1490 1491 1492 1494 1495 1497 1498 1499 1500 1502 1504 1506 1509 1511 1513 1515 1517 1518 1518 1519 1521 1522 1523 1524 1525 1527 1528 1530 1532 1533 1536 1538 1540 1543 1545 1546 1548
1509 1507 1505 1503 1501 1499 1498 1497 1496 1496 1495 1494 1492 1491 1489 1488 1487 1487 1487 1486 1485 1486 1486 1486 1486 1486 1487 1488 1489 1490 1492 1493 1495 1496 1497 1499 1501 1503 1505 1507 1509 1511 1513 1514 1515 1516 1517 1519 1519 1520 1521 1522 1524 1526 1527 1529 1531 1534 1536 1538 1540 1541 1543
1509 1507 1505 1503 1501 1499 1497 1496 1495 1494 1493 1492 1491 1489 1488 1486 1485 1485 1486 1485 1484 1484 1484 1484 1484 1484 1484 1485 1485 1486 1487 1489 1490 1492 1494 1495 1497 1499 1501 1503 1505 1506 1508 1509 1510 1512 1513 1514 1515 1516 1517 1518 1520 1521 1523 1525 1527 1529 1531 1533 1535 1536 1538
1509 1508 1505 1503 1501 1499 1497 1495 1494 1494 1493 1492 1490 1488 1486 1484 1483 1482 1482 1482 1482 1482 1481 1481 1482 1482 1482 1482 1483 1483 1484 1485 1486 1487 1489 1491 1493 1495 1497 1498 1500 1502 1503 1504 1506 1507 1508 1509 1511 1512 1513 1515 1516 1517 1519 1520 1522 1524 1526 1528 1530 1531 1534
1508 1507 1505 1503 1501 1498 1496 1494 1493 1493 1492 1490 1489 1486 1484 1482 1481 1480 1479 1479 1480 1480 1480 1479 1479 1479 1480 1480 1480 1481 1481 1482 1482 1483 1484 1486 1488 1490 1492 1493 1495 1496 1498 1499 1501 1502 1504 1505 1506 1507 1509 1511 1512 1513 1515 1516 1518 1520 1521 1523 1525 1527 1529
1506 1505 1504 1502 1499 1497 1494 1492 1490 1490 1489 1488 1486 1484 1482 1480 1478 1478 1477 1477 1477 1478 1478 1477 1477 1477 1477 1477 1477 1478 1478 1479 1478 1478 1479 1481 1483 1485 1486 1488 1490 1491 1493 1495 1496 1498 1499 1500 1502 1503 1505 1506 1508 1509 1511 1512 1514 1515 1516 1518 1520 1522 1524
1504 1503 1502 1501 1499 1496 1494 1491 1488 1486 1486 1485 1484 1481 1479 1478 1476 1475 1475 1474 1474 1475 1475 1475 1474 1474 1474 1474 1474 1475 1475 1475 1475 1475 1476 1477 1479 1481 1482 1484 1485 1487 1488 1490 1492 1494 1495 1496 1498 1499 1500 1502 1503 1505 1506 1508 1509 1510 1511 1513 1515 1517 1519
1502 1501 1500 1499 1498 1496 1494 1491 1487 1484 1482 1482 1481 1479 1477 1477 1475 1473 1472 1471 1471 1471 1471 1471 1471 1470 1470 1470 1471 1471 1472 1472 1472 1472 1473 1474 1476 1477 1478 1479 1481 1482 1484 1485 1487 1489 1490 1492 1493 1495 1495 1497 1498 1500 1501 1503 1504 1505 1506 1508 1510 1512 1514
1500 1499 1497 1496 1495 1494 1493 1490 1487 1484 1480 1479 1478 1477 1476 1475 1474 1472 1470 1469 1469 1468 1467 1466 1466 1466 1466 1467 1467 1468 1469 1468 1469 1469 1470 1471 1472 1472 1474 1475 1476 1477 1479 1481 1483 1484 1486 1487 1489 1490 1491 1492 1493 1495 1497 1498 1499 1500 1501 1503 1505 1506 1509
1496 1495 1494 1493 1492 1491 1490 1488 1486 1483 1480 1477 1476 1475 1474 1474 1472 1471 1469 1467 1466 1465 1463 1462 1461 1461 1462 1462 1463 1464 1465 1465 1465 1466 1466 1467 1468 1468 1468 1469 1471 1473 1474 1476 1478 1479 1481 1482 1484 1486 1486 1487 1488 1490 1492 1493 1494 1495 1496 1497 1499 1501 1504
1492 1491 1490 1489 1489 1488 1487 1486 1484 1481 1479 1477 1475 1473 1473 1471 1470 1469 1468 1465 1464 1462 1460 1458 1457 1457 1458 1458 1459 1459 1460 1460 1461 1461 1462 1462 1463 1464 1464 1464 1466 1467 1469 1471 1473 1474 1476 1478 1479 1480 1481 1482 1484 1486 1487 1488 1488 1489 1490 1492 1494 1497 1500
1490 1488 1486 1485 1485 1485 1484 1483 1482 1481 1479 1477 1475 1472 1471 1469 1468 1468 1466 1464 1462 1460 1458 1455 1454 1453 1454 1454 1455 1455 1455 1455 1456 1456 1457 1457 1458 1458 1459 1459 1461 1462 1464 1465 1468 1469 1471 1472 1473 1474 1475 1477 1479 1481 1481 1482 1482 1483 1486 1488 1490 1492 1494
1487 1485 1483 1482 1481 1481 1481 1480 1480 1479 1477 1476 1475 1473 1470 1469 1468 1466 1464 1462 1460 1458 1456 1453 1451 1450 1450 1451 1451 1451 1451 1452 1453 1453 1453 1453 1453 1453 1454 1455 1456 1457 1458 1460 1463 1465 1467 1468 1468 1469 1471 1473 1473 1474 1475 1475 1477 1481 1483 1484 1485 1487 1489
1484 1482 1480 1479 1478 1477 1477 1477 1477 1476 1475 1474 1473 1472 1470 1468 1466 1464 1461 1459 1458 1455 1453 1450 1448 1447 1447 1447 1448 1447 1448 1448 1449 1449 1449 1449 1449 1450 1450 1451 1452 1453 1454 1456 1458 1460 1462 1463 1463 1465 1467 1467 1468 1469 1470 1471 1474 1478 1480 1480 1482 1484 1486
1480 1478 1477 1476 1475 1473 1473 1473 1473 1472 1471 1470 1470 1469 1467 1465 1464 1461 1459 1456 1454 1452 1449 1447 1445 1444 1444 1444 1444 1444 1443 1444 1444 1445 1445 1446 1447 1447 1447 1447 1448 1450 1450 1451 1453 1455 1457 1458 1459 1460 1462 1462 1463 1464 1465 1467 1470 1473 1475 1477 1479 1480 1482